KK4XZ Weather Reports


time (UTC)temp
C
wind
direction
speed
KPH
gust
KPH
rain 1hr
cm
rain 24hr
cm
rain mn
cm
humidity
%
barometer
mb
20260906120530 22 133 14.5 16.1 0.00 0.23 0.00 97 1010.9
20260906115526 22 131 14.5 16.1 0.00 0.23 0.00 97 1010.9
20260906114521 22 133 14.5 16.1 0.00 0.23 0.00 97 1010.8
20260906113536 21 132 14.5 16.1 0.00 0.23 0.00 97 1010.8
20260906112531 21 130 14.5 16.1 0.00 0.23 0.00 97 1010.7
20260906111527 21 129 14.5 16.1 0.00 0.23 0.00 97 1010.5
20260906110522 21 130 14.5 17.7 0.00 0.23 0.00 97 1010.4
20260906105516 21 133 14.5 16.1 0.00 0.23 0.00 97 1010.3
20260906104532 21 128 12.9 16.1 0.00 0.23 0.00 97 1010.3
20260906103527 21 131 14.5 16.1 0.00 0.23 0.00 97 1010.3
20260906102522 21 130 14.5 16.1 0.00 0.23 0.00 97 1010.2
20260906101518 21 129 12.9 16.1 0.00 0.23 0.00 97 1010.1
20260906100533 22 132 14.5 17.7 0.00 0.23 0.00 97 1009.7
20260906095528 21 135 14.5 17.7 0.00 0.23 0.00 97 1009.7
20260906094523 21 134 14.5 17.7 0.00 0.23 0.00 97 1009.5
20260906093519 21 130 12.9 16.1 0.00 0.23 0.00 97 1009.6
20260906092534 22 129 14.5 17.7 0.00 0.23 0.00 97 1009.5
20260906091529 22 136 14.5 16.1 0.00 0.23 0.00 97 1009.6
20260906090524 22 133 14.5 17.7 0.00 0.23 0.00 97 1009.6
20260906085519 22 125 11.3 17.7 0.00 0.23 0.00 97 1009.6
20260906084534 22 132 12.9 17.7 0.00 0.23 0.00 97 1009.8
20260906083529 22 117 11.3 14.5 0.00 0.23 0.00 97 1009.6
20260906082524 22 132 12.9 16.1 0.00 0.23 0.00 97 1009.6
20260906081519 22 135 14.5 17.7 0.00 0.23 0.00 97 1009.5
20260906080535 22 134 14.5 17.7 0.00 0.23 0.00 97 1009.6
20260906075529 22 123 11.3 17.7 0.00 0.23 0.00 97 1009.7
20260906074525 22 133 14.5 19.3 0.00 0.23 0.00 97 1009.8
20260906073520 22 129 14.5 17.7 0.00 0.23 0.00 97 1009.8
20260906072535 22 137 14.5 19.3 0.00 0.23 0.00 97 1009.7
20260906071530 22 136 12.9 16.1 0.00 0.23 0.00 97 1009.7
20260906070525 22 133 12.9 16.1 0.00 0.23 0.00 97 1009.8
20260906065520 22 126 12.9 16.1 0.00 0.23 0.00 97 1009.7
20260906064535 22 135 12.9 16.1 0.00 0.23 0.00 97 1010.0
20260906063530 22 139 12.9 16.1 0.00 0.23 0.00 97 1009.8
20260906062525 22 137 12.9 14.5 0.00 0.23 0.00 97 1009.8
20260906061521 22 134 12.9 14.5 0.00 0.23 0.00 97 1009.8
20260906060536 22 136 12.9 14.5 0.00 0.23 0.00 97 1010.0
20260906055531 22 136 12.9 14.5 0.00 0.23 0.00 97 1010.0
20260906054526 22 136 12.9 14.5 0.00 0.23 0.00 97 1010.1
20260906053521 23 132 11.3 14.5 0.00 0.23 0.00 97 1009.9
20260906052516 23 136 12.9 14.5 0.00 0.23 0.00 97 1009.9
20260906051532 23 137 12.9 14.5 0.00 0.23 0.00 97 1009.8
20260906050527 23 138 12.9 14.5 0.00 0.23 0.00 97 1009.6
20260906045522 23 133 12.9 14.5 0.00 0.23 0.00 97 1009.7
20260906044517 23 137 12.9 14.5 0.00 0.23 0.00 97 1009.8
20260906043532 23 135 12.9 14.5 0.00 0.23 0.00 97 1010.1
20260906042528 23 136 12.9 14.5 0.00 0.23 0.00 97 1010.2
20260906041523 23 135 12.9 14.5 0.00 0.23 0.00 97 1010.6
20260906040518 23 140 12.9 14.5 0.00 0.23 0.00 97 1010.8
20260906035533 23 141 12.9 17.7 0.00 0.23 0.23 97 1010.9
20260906034528 23 140 12.9 14.5 0.00 0.23 0.23 97 1010.9
20260906033524 23 137 14.5 16.1 0.00 0.23 0.23 97 1011.1
20260906032519 23 138 12.9 14.5 0.00 0.23 0.23 97 1011.1
20260906031534 23 134 12.9 14.5 0.00 0.23 0.23 97 1011.4
20260906030529 22 141 14.5 16.1 0.00 0.23 0.23 97 1011.3
20260906025524 22 138 12.9 14.5 0.00 0.23 0.23 97 1011.1
20260906024519 22 139 12.9 14.5 0.00 0.23 0.23 97 1011.0
20260906023535 22 130 12.9 14.5 0.00 0.23 0.23 97 1011.0
20260906022530 22 137 12.9 14.5 0.00 0.23 0.23 97 1010.9
20260906021525 22 124 12.9 14.5 0.00 0.23 0.23 97 1011.2
20260906020520 22 137 14.5 16.1 0.00 0.23 0.23 96 1011.2
20260906015535 22 134 14.5 16.1 0.00 0.23 0.23 96 1011.2
20260906014530 22 132 11.3 14.5 0.00 0.23 0.23 96 1011.3
20260906013525 22 136 12.9 14.5 0.00 0.23 0.23 96 1011.4
20260906012520 22 133 12.9 17.7 0.00 0.23 0.23 96 1011.4
20260906011535 22 135 12.9 16.1 0.00 0.23 0.23 96 1011.2
20260906010530 22 124 12.9 16.1 0.00 0.23 0.23 96 1011.0
20260906005525 22 131 14.5 16.1 0.00 0.23 0.23 96 1010.5
20260906004520 22 127 12.9 14.5 0.00 0.23 0.23 96 1010.1
20260906003535 22 129 12.9 14.5 0.00 0.23 0.23 95 1010.5
20260906002530 22 132 12.9 14.5 0.00 0.23 0.23 95 1010.4
20260906001526 22 132 12.9 14.5 0.00 0.23 0.23 95 1010.2
20260906000521 22 137 12.9 14.5 0.05 0.23 0.23 95 1010.3
20260905235536 22 132 12.9 14.5 0.23 0.23 0.23 94 1010.1
20260905234531 22 139 12.9 16.1 0.23 0.23 0.23 94 1010.4
20260905233526 23 138 14.5 16.1 0.23 0.23 0.23 94 1011.0
20260905232521 23 132 12.9 14.5 0.23 0.23 0.23 93 1011.4
20260905231516 23 135 12.9 16.1 0.20 0.20 0.20 93 1011.4
20260905230532 24 131 9.7 12.9 0.18 0.18 0.18 87 1011.6
20260905225527 27 118 6.4 9.7 0.00 0.00 0.00 77 1011.5
20260905224522 28 136 9.7 12.9 0.00 0.00 0.00 86 1010.6
20260905223517 28 142 12.9 17.7 0.00 0.00 0.00 85 1009.5
20260905222532 28 146 14.5 20.9 0.00 0.00 0.00 84 1009.3
20260905221527 29 149 14.5 20.9 0.00 0.00 0.00 84 1009.7
20260905220522 29 145 12.9 17.7 0.00 0.00 0.00 83 1009.2
20260905215517 30 148 12.9 17.7 0.00 0.00 0.00 82 1008.9
20260905214532 30 150 12.9 17.7 0.00 0.00 0.00 81 1009.0
20260905213527 30 155 14.5 24.1 0.00 0.00 0.00 79 1009.0
20260905212522 30 152 14.5 20.9 0.00 0.00 0.00 79 1008.9
20260905211517 31 152 12.9 20.9 0.00 0.00 0.00 78 1009.1
20260905210532 30 153 11.3 17.7 0.00 0.00 0.00 79 1009.0
20260905205527 31 157 12.9 20.9 0.00 0.00 0.00 78 1008.9
20260905204522 31 151 14.5 22.5 0.00 0.00 0.00 78 1008.9
20260905203517 31 157 12.9 19.3 0.00 0.00 0.00 78 1008.8
20260905202532 31 184 12.9 19.3 0.00 0.00 0.00 76 1008.7
20260905201528 31 187 11.3 20.9 0.00 0.00 0.00 76 1009.0
20260905200523 31 196 11.3 14.5 0.00 0.00 0.00 75 1009.0
20260905195518 31 191 9.7 14.5 0.00 0.00 0.00 75 1009.0
20260905194533 31 191 9.7 14.5 0.00 0.00 0.00 75 1009.0
20260905193529 32 188 11.3 24.1 0.00 0.00 0.00 73 1009.2
20260905192524 31 188 9.7 16.1 0.00 0.00 0.00 73 1009.2
20260905191519 31 184 12.9 19.3 0.00 0.00 0.00 74 1009.5
20260905190534 32 186 12.9 20.9 0.00 0.00 0.00 72 1009.9
20260905185529 32 194 11.3 16.1 0.00 0.00 0.00 73 1010.0
20260905184525 32 192 9.7 17.7 0.00 0.00 0.00 71 1010.2
20260905183520 32 193 9.7 14.5 0.00 0.00 0.00 71 1010.4
20260905182535 33 187 11.3 20.9 0.00 0.00 0.00 68 1010.4
20260905181530 32 187 12.9 16.1 0.00 0.00 0.00 69 1010.5
20260905180525 32 194 9.7 14.5 0.00 0.00 0.00 69 1010.6
20260905175521 32 193 11.3 19.3 0.00 0.00 0.00 71 1010.8
20260905174516 32 180 11.3 17.7 0.00 0.00 0.00 71 1010.9
20260905173531 32 186 12.9 17.7 0.00 0.00 0.00 70 1011.0
20260905172526 32 154 14.5 27.4 0.00 0.00 0.00 71 1011.1
20260905171522 32 155 11.3 20.9 0.00 0.00 0.00 70 1011.2
20260905170517 33 155 11.3 16.1 0.00 0.00 0.00 69 1011.3
20260905165532 32 156 14.5 24.1 0.00 0.00 0.00 68 1011.4
20260905164527 33 156 11.3 17.7 0.00 0.00 0.00 70 1011.4
20260905163522 33 190 9.7 12.9 0.00 0.00 0.00 69 1011.6
20260905162517 32 184 12.9 17.7 0.00 0.00 0.00 70 1011.7
20260905161532 32 184 9.7 16.1 0.00 0.00 0.00 70 1012.0
20260905160527 33 189 8.0 16.1 0.00 0.00 0.00 68 1012.1
20260905155523 32 187 9.7 16.1 0.00 0.00 0.00 71 1012.1
20260905154518 32 188 8.0 12.9 0.00 0.00 0.00 68 1012.4
20260905153533 33 187 8.0 9.7 0.00 0.00 0.00 67 1012.4
20260905152528 32 186 6.4 11.3 0.00 0.00 0.00 70 1012.4
20260905151522 32 186 9.7 14.5 0.00 0.00 0.00 70 1012.6
20260905150517 32 197 9.7 11.3 0.00 0.00 0.00 70 1012.6
20260905145533 31 184 6.4 9.7 0.00 0.00 0.00 72 1012.7
20260905144527 31 158 9.7 14.5 0.00 0.00 0.00 74 1012.7
20260905143523 30 140 11.3 12.9 0.00 0.00 0.00 75 1012.8
20260905142518 30 147 9.7 12.9 0.00 0.00 0.00 77 1012.7
20260905141533 29 113 4.8 6.4 0.00 0.00 0.00 79 1012.8
20260905140528 29 95 6.4 8.0 0.00 0.00 0.00 79 1013.0
20260905135524 28 109 6.4 12.9 0.00 0.00 0.00 81 1012.9
20260905134518 28 113 8.0 14.5 0.00 0.00 0.00 82 1012.9
20260905133534 28 91 6.4 11.3 0.00 0.00 0.00 83 1012.9
20260905132529 28 75 6.4 11.3 0.00 0.00 0.00 83 1013.0
20260905131524 27 107 6.4 11.3 0.00 0.00 0.00 84 1013.0
20260905130519 27 93 6.4 11.3 0.00 0.00 0.00 87 1012.9
20260905125534 26 92 8.0 9.7 0.00 0.00 0.00 89 1013.1
20260905124529 26 88 8.0 9.7 0.00 0.00 0.00 91 1013.1
20260905123524 26 86 6.4 8.0 0.00 0.00 0.00 93 1013.0
20260905122519 25 100 6.4 9.7 0.00 0.00 0.00 94 1012.9
20260905121534 25 97 6.4 9.7 0.00 0.00 0.00 96 1013.0